Carroll, IA

1:15 AM CST on January 22, 2018 (GMT -0600)
Neu

Weather History for KCIN - April, 2014

Change the Weather History Date:

Saturday, April 5, 2014

  Actual Average Record
Temperature  
Mean Temperature 40 °F -  
Max Temperature 57 °F 55 °F 85 °F (1991)
Min Temperature 24 °F 30 °F 12 °F (1982)
Degree Days  
Heating Degree Days 24    
Moisture  
Dew Point 27 °F    
Average Humidity 66    
Maximum Humidity 93    
Minimum Humidity 27    
Precipitation  
Precipitation 0.00 in - - ()
Sea Level Pressure  
Sea Level Pressure 30.08 in    
Wind  
Wind Speed 8 mph (South)    
Max Wind Speed 21 mph    
Max Gust Speed 30 mph    
Visibility 10 miles    
Events      
Averages and records for this station are not official NWS values.
T = Trace of Precipitation, MM = Missing Value Source: NWS Daily Summary

Daily Weather History Graph

Daily Weather History Graph

Search for Another Location

Airport or City:

Trip Planner

Search our weather history database for the weather conditions in past years. The results will help you decide how hot, cold, wet, or windy it might be!

Date:

Astronomy

Apr. 05, 2014 Rise Set
Actual Time 6:55 AM CDT 7:49 PM CDT
Civil Twilight 6:26 AM CDT 8:17 PM CDT
Nautical Twilight 5:52 AM CDT 8:51 PM CDT
Astronomical Twilight 5:17 AM CDT 9:26 PM CDT
Moon 10:59 AM CDT (4/5) 1:03 AM CDT (4/5)
Length of Visible Light 13h 51m
Length of Day
12h 54m
Waxing Crescent, 34% of the Moon is Illuminated
Apr 5
Waxing Crescent
Apr 7
First Quarter
Apr 15
Full
Apr 22
Last Quarter
Apr 29
New

Hourly Weather History & Observations

Time (CDT) Temp. Windchill Dew Point Humidity Pressure Visibility Wind Dir Wind Speed Gust Speed Precip Events Conditions
12:15 AM 30.2 °F 21.9 °F 26.6 °F 86% 30.13 in 10.0 mi WSW 9.2 mph - N/A   Clear
12:35 AM 28.4 °F 23.3 °F 24.8 °F 86% 30.13 in 10.0 mi West 4.6 mph - N/A   Partly Cloudy
12:55 AM 26.6 °F 21.2 °F 24.8 °F 93% 30.13 in 10.0 mi West 4.6 mph - N/A   Clear
1:15 AM 28.4 °F 23.3 °F 26.6 °F 93% 30.14 in 10.0 mi West 4.6 mph - N/A   Partly Cloudy
1:35 AM 28.4 °F - 24.8 °F 86% 30.14 in 10.0 mi Calm Calm - N/A   Scattered Clouds
1:55 AM 28.4 °F - 24.8 °F 86% 30.13 in 10.0 mi Calm Calm - N/A   Partly Cloudy
2:15 AM 28.4 °F 24.6 °F 24.8 °F 86% 30.14 in 10.0 mi West 3.5 mph - N/A   Partly Cloudy
2:35 AM 28.4 °F - 24.8 °F 86% 30.14 in 10.0 mi Calm Calm - N/A   Clear
2:55 AM 26.6 °F - 24.8 °F 93% 30.14 in 10.0 mi Calm Calm - N/A   Clear
3:15 AM 26.6 °F - 24.8 °F 93% 30.13 in 10.0 mi Calm Calm - N/A   Clear
3:35 AM 24.8 °F - 23.0 °F 93% 30.12 in 10.0 mi Calm Calm - N/A   Clear
3:55 AM 26.6 °F 22.6 °F 23.0 °F 86% 30.12 in 10.0 mi South 3.5 mph - N/A   Clear
4:15 AM 28.4 °F 23.3 °F 24.8 °F 86% 30.12 in 10.0 mi SW 4.6 mph - N/A   Clear
4:35 AM 26.6 °F - 23.0 °F 86% 30.11 in 10.0 mi Calm Calm - N/A   Clear
4:55 AM 24.8 °F - 23.0 °F 93% 30.11 in 10.0 mi Calm Calm - N/A   Partly Cloudy
5:15 AM 24.8 °F - 23.0 °F 93% 30.11 in 10.0 mi Calm Calm - N/A   Clear
5:35 AM 24.8 °F - 23.0 °F 93% 30.11 in 10.0 mi Calm Calm - N/A   Clear
5:55 AM 24.8 °F 20.5 °F 21.2 °F 86% 30.11 in 10.0 mi SW 3.5 mph - N/A   Clear
6:15 AM 26.6 °F - 23.0 °F 86% 30.12 in 10.0 mi Calm Calm - N/A   Clear
6:35 AM 24.8 °F 16.9 °F 23.0 °F 93% 30.12 in 10.0 mi SW 6.9 mph - N/A   Clear
6:55 AM 26.6 °F 19.1 °F 23.0 °F 86% 30.13 in 10.0 mi SSW 6.9 mph - N/A   Clear
7:15 AM 26.6 °F 19.1 °F 23.0 °F 86% 30.13 in 10.0 mi SW 6.9 mph - N/A   Clear
7:35 AM 28.4 °F 20.4 °F 24.8 °F 86% 30.13 in 10.0 mi SSW 8.1 mph - N/A   Clear
7:55 AM 28.4 °F 19.7 °F 24.8 °F 86% 30.15 in 10.0 mi SSW 9.2 mph - N/A   Clear
8:15 AM 30.2 °F 21.9 °F 26.6 °F 86% 30.15 in 10.0 mi SSW 9.2 mph - N/A   Clear
8:35 AM 32.0 °F 23.6 °F 26.6 °F 80% 30.16 in 10.0 mi SSW 10.4 mph - N/A   Clear
8:55 AM 32.0 °F 24.2 °F 28.4 °F 87% 30.16 in 10.0 mi SSW 9.2 mph - N/A   Clear
9:15 AM 33.8 °F 24.3 °F 28.4 °F 81% 30.15 in 10.0 mi SSW 13.8 mph - N/A   Clear
9:35 AM 35.6 °F 26.2 °F 28.4 °F 75% 30.15 in 10.0 mi SSW 15.0 mph - N/A   Clear
9:55 AM 35.6 °F 27.1 °F 30.2 °F 81% 30.15 in 10.0 mi SSW 12.7 mph - N/A   Clear
10:15 AM 39.2 °F 31.6 °F 32.0 °F 75% 30.15 in 10.0 mi South 12.7 mph - N/A   Clear
10:35 AM 39.2 °F 30.8 °F 30.2 °F 70% 30.15 in 10.0 mi SSW 15.0 mph 21.9 mph N/A   Clear
10:55 AM 41.0 °F 33.1 °F 32.0 °F 70% 30.15 in 10.0 mi SSW 15.0 mph - N/A   Clear
11:15 AM 41.0 °F 33.1 °F 32.0 °F 70% 30.14 in 10.0 mi SSW 15.0 mph - N/A   Clear
11:35 AM 44.6 °F 36.9 °F 33.8 °F 66% 30.13 in 10.0 mi SSW 18.4 mph - N/A   Clear
11:55 AM 44.6 °F 37.2 °F 32.0 °F 61% 30.13 in 10.0 mi South 17.3 mph - N/A   Clear
12:15 PM 46.4 °F 39.8 °F 32.0 °F 57% 30.11 in 10.0 mi South 16.1 mph - N/A   Clear
12:35 PM 46.4 °F 40.4 °F 32.0 °F 57% 30.11 in 10.0 mi South 13.8 mph - N/A   Clear
12:55 PM 48.2 °F - 32.0 °F 54% 30.11 in 10.0 mi South 13.8 mph 20.7 mph N/A   Clear
1:15 PM 50.0 °F - 32.0 °F 50% 30.10 in 10.0 mi South 15.0 mph - N/A   Clear
1:35 PM 50.0 °F - 32.0 °F 50% 30.09 in 10.0 mi SSE 15.0 mph - N/A   Clear
1:55 PM 51.8 °F - 32.0 °F 47% 30.08 in 10.0 mi SSE 13.8 mph - N/A   Clear
2:15 PM 51.8 °F - 32.0 °F 47% 30.07 in 10.0 mi South 13.8 mph 20.7 mph N/A   Clear
2:35 PM 53.6 °F - 30.2 °F 41% 30.06 in 10.0 mi South 16.1 mph - N/A   Clear
2:55 PM 53.6 °F - 26.6 °F 35% 30.05 in 10.0 mi South 16.1 mph - N/A   Clear
3:15 PM 53.6 °F - 26.6 °F 35% 30.04 in 10.0 mi South 16.1 mph - N/A   Clear
3:35 PM 55.4 °F - 26.6 °F 33% 30.03 in 10.0 mi SSE 17.3 mph 23.0 mph N/A   Clear
3:55 PM 55.4 °F - 26.6 °F 33% 30.03 in 10.0 mi South 17.3 mph - N/A   Clear
4:15 PM 57.2 °F - 23.0 °F 27% 30.02 in 10.0 mi SSE 18.4 mph - N/A   Clear
4:35 PM 57.2 °F - 24.8 °F 29% 30.01 in 10.0 mi South 16.1 mph 23.0 mph N/A   Partly Cloudy
4:55 PM 57.2 °F - 23.0 °F 27% 30.00 in 10.0 mi SSE 19.6 mph - N/A   Partly Cloudy
5:15 PM 57.2 °F - 24.8 °F 29% 30.00 in 10.0 mi South 19.6 mph - N/A   Clear
5:35 PM 57.2 °F - 24.8 °F 29% 30.00 in 10.0 mi South 18.4 mph 29.9 mph N/A   Clear
5:55 PM 55.4 °F - 24.8 °F 31% 29.99 in 10.0 mi South 17.3 mph 25.3 mph N/A   Partly Cloudy
6:15 PM 55.4 °F - 26.6 °F 33% 29.98 in 10.0 mi South 18.4 mph 25.3 mph N/A   Mostly Cloudy
6:35 PM 55.4 °F - 26.6 °F 33% 29.98 in 10.0 mi South 20.7 mph - N/A   Mostly Cloudy
6:55 PM 53.6 °F - 26.6 °F 35% 29.97 in 10.0 mi SSE 17.3 mph - N/A   Mostly Cloudy
7:35 PM 50.0 °F - 28.4 °F 43% 29.97 in 10.0 mi SSE 13.8 mph - N/A   Clear
7:55 PM 48.2 °F - 28.4 °F 46% 29.98 in 10.0 mi SSE 10.4 mph - N/A   Clear
8:15 PM 44.6 °F 40.2 °F 30.2 °F 57% 29.98 in 10.0 mi SSE 8.1 mph - N/A   Clear
8:35 PM 41.0 °F 35.2 °F 28.4 °F 61% 29.99 in 10.0 mi SE 9.2 mph - N/A   Clear
8:55 PM 41.0 °F 38.0 °F 30.2 °F 65% 29.99 in 10.0 mi SSE 4.6 mph - N/A   Partly Cloudy
9:15 PM 41.0 °F 37.1 °F 28.4 °F 61% 30.00 in 10.0 mi SSE 5.8 mph - N/A   Partly Cloudy
9:35 PM 37.4 °F 32.1 °F 28.4 °F 70% 30.00 in 10.0 mi SSE 6.9 mph - N/A   Scattered Clouds
9:55 PM 37.4 °F 32.8 °F 28.4 °F 70% 30.00 in 10.0 mi SSE 5.8 mph - N/A   Scattered Clouds
10:15 PM 37.4 °F 32.1 °F 28.4 °F 70% 30.00 in 10.0 mi SSE 6.9 mph - N/A   Scattered Clouds
10:35 PM 37.4 °F 30.8 °F 28.4 °F 70% 29.99 in 10.0 mi SSE 9.2 mph - N/A   Mostly Cloudy
10:55 PM 39.2 °F 33.6 °F 28.4 °F 65% 29.99 in 10.0 mi South 8.1 mph - N/A   Overcast
11:15 PM 39.2 °F 32.5 °F 28.4 °F 65% 29.99 in 10.0 mi South 10.4 mph - N/A   Overcast
11:35 PM 41.0 °F 33.9 °F 30.2 °F 65% 29.98 in 10.0 mi South 12.7 mph - N/A   Overcast
11:55 PM 41.0 °F 34.3 °F 30.2 °F 65% 29.98 in 10.0 mi South 11.5 mph - N/A   Overcast